Location: Dannhausen
(51.8650°N, 10.1026°E)
Time: 23:35:30
(UTC+00:00)

Cosmos 2322 Rocket - Pass Details

Date: 09 April 2020
Orbit: 834 x 849 km, 71.0° (Epoch: 29 May)

Event Time Altitude Azimuth Distance (km) Brightness Sun altitude
Rises 21:34:00 0° 330° (NNW) 3,409 6.7 -25.9°
Reaches altitude 10° 21:36:35 10° 337° (NNW) 2,468 5.6 -26.1°
Maximum altitude 21:42:00 45° 50° (NE) 1,128 2.8 -26.5°
Enters shadow 21:42:48 43° 74° (ENE) 1,172 2.8 -26.5°
